| time (UTC) | temp C | wind direction | speed KPH | gust KPH | rain 1hr cm | rain 24hr cm | rain mn cm | humidity % | barometer mb |
| 20260502180313 | 21 | 213 | 3.2 | 4.8 | 0.00 | 0.00 | 0.00 | 49 | 1019.9 |
| 20260502170220 | 21 | 82 | 3.2 | 4.8 | 0.00 | 0.00 | 0.00 | 54 | 1020.3 |
| 20260502164155 | 20 | 67 | 1.6 | 3.2 | 0.00 | 0.00 | 0.00 | 58 | 1020.5 |
| 20260502163650 | 20 | 114 | 1.6 | 3.2 | 0.00 | 0.00 | 0.00 | 60 | 1020.3 |
| 20260502163147 | 20 | 115 | 4.8 | 6.4 | 0.00 | 0.00 | 0.00 | 67 | 1020.5 |
| 20260502162644 | 20 | 340 | 8.0 | 9.7 | 0.00 | 0.00 | 0.00 | 59 | 1020.3 |
| 20260502162141 | 20 | 218 | 1.6 | 1.6 | 0.00 | 0.00 | 0.00 | 63 | 1020.4 |
| 20260502161639 | 19 | 315 | 11.3 | 16.1 | 0.00 | 0.00 | 0.00 | 64 | 1020.3 |
| 20260502161135 | 19 | 7 | 6.4 | 6.4 | 0.00 | 0.00 | 0.00 | 69 | 1020.4 |
| 20260502160633 | 19 | 348 | 4.8 | 4.8 | 0.00 | 0.00 | 0.00 | 66 | 1020.6 |
| 20260502160132 | 18 | 251 | 3.2 | 4.8 | 0.00 | 0.00 | 0.00 | 67 | 1020.6 |
| 20260502152046 | 17 | 10 | 3.2 | 6.4 | 0.00 | 0.00 | 0.00 | 74 | 1020.5 |
| 20260502151543 | 17 | 356 | 6.4 | 11.3 | 0.00 | 0.00 | 0.00 | 72 | 1020.2 |
| 20260502151040 | 18 | 337 | 8.0 | 9.7 | 0.00 | 0.00 | 0.00 | 78 | 1020.2 |
| 20260502150538 | 17 | 357 | 8.0 | 11.3 | 0.00 | 0.00 | 0.00 | 79 | 1020.4 |
| 20260502130416 | 12 | 350 | 0.0 | 1.6 | 0.00 | 0.00 | 0.00 | 99 | 1019.1 |
| 20260502123359 | 11 | 9 | 1.6 | 1.6 | 0.00 | 0.00 | 0.00 | 99 | 1018.4 |
| 20260502122856 | 11 | 18 | 0.0 | 0.0 | 0.00 | 0.00 | 0.00 | 99 | 1018.4 |
| 20260502122352 | 11 | 341 | 3.2 | 3.2 | 0.00 | 0.00 | 0.00 | 99 | 1018.4 |
| 20260502121850 | 10 | 0 | 3.2 | 3.2 | 0.00 | 0.00 | 0.00 | 99 | 1018.3 |
| 20260502121347 | 10 | 2 | 1.6 | 1.6 | 0.00 | 0.00 | 0.00 | 99 | 1018.0 |
| 20260502120845 | 10 | 11 | 0.0 | 0.0 | 0.00 | 0.00 | 0.00 | 99 | 1018.2 |
| 20260502120341 | 10 | 16 | 1.6 | 1.6 | 0.00 | 0.00 | 0.00 | 99 | 1017.8 |
| 20260502115838 | 10 | 17 | 0.0 | 0.0 | 0.00 | 0.00 | 0.00 | 99 | 1017.9 |
| 20260502115335 | 10 | 356 | 1.6 | 1.6 | 0.00 | 0.00 | 0.00 | 99 | 1017.9 |
| 20260502114832 | 10 | 18 | 0.0 | 0.0 | 0.00 | 0.00 | 0.00 | 99 | 1017.8 |
| 20260502114329 | 10 | 12 | 0.0 | 1.6 | 0.00 | 0.00 | 0.00 | 99 | 1017.8 |
| 20260502113826 | 10 | 12 | 0.0 | 0.0 | 0.00 | 0.00 | 0.00 | 99 | 1017.8 |
| 20260502113323 | 10 | 7 | 0.0 | 1.6 | 0.00 | 0.00 | 0.00 | 99 | 1017.6 |
| 20260502112822 | 10 | 9 | 0.0 | 0.0 | 0.00 | 0.00 | 0.00 | 99 | 1017.5 |
| 20260502112318 | 10 | 15 | 0.0 | 0.0 | 0.00 | 0.00 | 0.00 | 99 | 1017.3 |
| 20260502111816 | 10 | 17 | 0.0 | 0.0 | 0.00 | 0.00 | 0.00 | 99 | 1017.4 |
| 20260502111313 | 10 | 14 | 0.0 | 0.0 | 0.00 | 0.00 | 0.00 | 99 | 1017.2 |
| 20260502110811 | 10 | 14 | 0.0 | 0.0 | 0.00 | 0.00 | 0.00 | 99 | 1017.4 |
| 20260502110309 | 10 | 354 | 3.2 | 3.2 | 0.00 | 0.00 | 0.00 | 99 | 1017.2 |
| 20260502105806 | 10 | 13 | 1.6 | 1.6 | 0.00 | 0.00 | 0.00 | 99 | 1017.1 |
| 20260502105305 | 10 | 359 | 3.2 | 3.2 | 0.00 | 0.00 | 0.00 | 99 | 1017.2 |
| 20260502104800 | 10 | 348 | 1.6 | 1.6 | 0.00 | 0.00 | 0.00 | 99 | 1017.2 |
| 20260502104257 | 10 | 9 | 1.6 | 1.6 | 0.00 | 0.00 | 0.00 | 99 | 1017.2 |
| 20260502103754 | 10 | 8 | 3.2 | 3.2 | 0.00 | 0.00 | 0.00 | 99 | 1017.0 |
| 20260502103252 | 10 | 11 | 1.6 | 3.2 | 0.00 | 0.00 | 0.00 | 99 | 1017.1 |
| 20260502102749 | 10 | 350 | 1.6 | 1.6 | 0.00 | 0.00 | 0.00 | 99 | 1017.1 |
| 20260502102245 | 10 | 17 | 0.0 | 0.0 | 0.00 | 0.00 | 0.00 | 99 | 1016.8 |
| 20260502101744 | 10 | 349 | 1.6 | 1.6 | 0.00 | 0.00 | 0.00 | 99 | 1016.8 |
| 20260502101241 | 10 | 17 | 0.0 | 0.0 | 0.00 | 0.00 | 0.00 | 99 | 1016.7 |
| 20260502100739 | 10 | 10 | 0.0 | 0.0 | 0.00 | 0.00 | 0.00 | 99 | 1016.8 |
| 20260502100238 | 10 | 14 | 1.6 | 1.6 | 0.00 | 0.00 | 0.00 | 99 | 1016.6 |
| 20260502091212 | 10 | 17 | 0.0 | 0.0 | 0.00 | 0.00 | 0.00 | 99 | 1016.5 |
| 20260502090709 | 10 | 0 | 1.6 | 1.6 | 0.00 | 0.00 | 0.00 | 99 | 1016.3 |
| 20260502090206 | 10 | 14 | 0.0 | 0.0 | 0.00 | 0.00 | 0.00 | 99 | 1016.1 |
| 20260502071102 | 11 | 18 | 0.0 | 0.0 | 0.00 | 0.00 | 0.00 | 99 | 1015.5 |
| 20260502070559 | 11 | 18 | 0.0 | 0.0 | 0.00 | 0.00 | 0.00 | 99 | 1015.6 |
| 20260502070057 | 11 | 18 | 0.0 | 0.0 | 0.00 | 0.00 | 0.00 | 99 | 1015.7 |
| 20260502065555 | 11 | 18 | 0.0 | 0.0 | 0.00 | 0.00 | 0.00 | 99 | 1015.8 |
| 20260502065053 | 11 | 18 | 0.0 | 0.0 | 0.00 | 0.00 | 0.00 | 99 | 1015.7 |
| 20260502064551 | 11 | 18 | 1.6 | 1.6 | 0.00 | 0.00 | 0.00 | 99 | 1015.7 |
| 20260502064048 | 11 | 18 | 0.0 | 0.0 | 0.00 | 0.00 | 0.00 | 99 | 1015.8 |
| 20260502063545 | 11 | 36 | 0.0 | 0.0 | 0.00 | 0.00 | 0.00 | 99 | 1015.9 |
| 20260502063043 | 11 | 40 | 0.0 | 0.0 | 0.00 | 0.00 | 0.00 | 99 | 1015.7 |
| 20260502062539 | 11 | 41 | 0.0 | 0.0 | 0.00 | 0.00 | 0.00 | 99 | 1015.9 |
| 20260502062032 | 11 | 32 | 0.0 | 0.0 | 0.00 | 0.00 | 0.00 | 99 | 1015.8 |
| 20260502061530 | 11 | 54 | 0.0 | 1.6 | 0.00 | 0.00 | 0.00 | 99 | 1015.7 |
| 20260502061026 | 11 | 27 | 0.0 | 0.0 | 0.00 | 0.00 | 0.00 | 99 | 1016.0 |
| 20260502060521 | 11 | 33 | 0.0 | 0.0 | 0.00 | 0.00 | 0.00 | 99 | 1016.1 |
| 20260502060018 | 11 | 28 | 0.0 | 0.0 | 0.00 | 0.00 | 0.00 | 99 | 1015.7 |
| 20260502055516 | 11 | 45 | 1.6 | 1.6 | 0.00 | 0.00 | 0.00 | 99 | 1016.1 |
| 20260502055015 | 11 | 40 | 0.0 | 0.0 | 0.00 | 0.00 | 0.00 | 99 | 1016.0 |
| 20260502054513 | 11 | 37 | 0.0 | 0.0 | 0.00 | 0.00 | 0.00 | 99 | 1016.2 |
| 20260502054009 | 11 | 39 | 0.0 | 0.0 | 0.00 | 0.00 | 0.00 | 99 | 1016.2 |
| 20260502053506 | 11 | 20 | 0.0 | 0.0 | 0.00 | 0.00 | 0.00 | 99 | 1016.3 |
| 20260502053004 | 11 | 40 | 1.6 | 1.6 | 0.00 | 0.00 | 0.00 | 99 | 1016.2 |
| 20260502052502 | 11 | 53 | 1.6 | 1.6 | 0.00 | 0.00 | 0.00 | 99 | 1016.0 |
| 20260502052000 | 11 | 30 | 0.0 | 1.6 | 0.00 | 0.00 | 0.00 | 99 | 1016.5 |
| 20260502051458 | 11 | 74 | 6.4 | 9.7 | 0.00 | 0.00 | 0.00 | 99 | 1016.4 |
| 20260502050955 | 11 | 349 | 0.0 | 3.2 | 0.00 | 0.00 | 0.00 | 99 | 1016.2 |
| 20260502050451 | 11 | 1 | 1.6 | 3.2 | 0.00 | 0.00 | 0.00 | 99 | 1016.4 |
| 20260502045949 | 11 | 333 | 1.6 | 3.2 | 0.00 | 6.32 | 6.32 | 99 | 1016.3 |
| 20260502045445 | 11 | 56 | 3.2 | 3.2 | 0.00 | 6.32 | 6.32 | 99 | 1016.1 |
| 20260502044942 | 11 | 31 | 1.6 | 1.6 | 0.00 | 6.32 | 6.32 | 99 | 1016.3 |
| 20260502044438 | 11 | 82 | 6.4 | 11.3 | 0.00 | 6.32 | 6.32 | 99 | 1016.3 |
| 20260502043935 | 11 | 24 | 1.6 | 1.6 | 0.00 | 6.32 | 6.32 | 99 | 1016.5 |
| 20260502043433 | 11 | 53 | 1.6 | 1.6 | 0.00 | 6.32 | 6.32 | 99 | 1016.4 |
| 20260502042932 | 11 | 17 | 9.7 | 11.3 | 0.00 | 6.32 | 6.32 | 99 | 1016.2 |
| 20260502042430 | 11 | 345 | 1.6 | 3.2 | 0.00 | 6.32 | 6.32 | 99 | 1016.1 |
| 20260502041926 | 11 | 13 | 1.6 | 1.6 | 0.00 | 6.32 | 6.32 | 99 | 1016.1 |
| 20260502041425 | 11 | 81 | 3.2 | 4.8 | 0.00 | 6.32 | 6.32 | 99 | 1016.1 |
| 20260502040922 | 11 | 324 | 1.6 | 3.2 | 0.00 | 6.32 | 6.32 | 99 | 1016.1 |
| 20260502040419 | 12 | 300 | 4.8 | 6.4 | 0.00 | 6.32 | 6.32 | 99 | 1015.9 |
| 20260502035915 | 12 | 354 | 9.7 | 11.3 | 0.00 | 6.32 | 6.32 | 99 | 1015.8 |
| 20260502035411 | 12 | 358 | 1.6 | 3.2 | 0.00 | 6.32 | 6.32 | 99 | 1015.7 |
| 20260502034909 | 12 | 8 | 4.8 | 6.4 | 0.00 | 6.32 | 6.32 | 99 | 1015.3 |
| 20260502034408 | 12 | 323 | 1.6 | 3.2 | 0.00 | 6.32 | 6.32 | 99 | 1015.5 |
| 20260502033906 | 12 | 354 | 6.4 | 9.7 | 0.00 | 6.32 | 6.32 | 99 | 1015.9 |
| 20260502033403 | 12 | 1 | 0.0 | 0.0 | 0.00 | 6.32 | 6.32 | 99 | 1015.4 |
| 20260502032859 | 12 | 356 | 11.3 | 16.1 | 0.18 | 6.32 | 6.32 | 99 | 1015.5 |
| 20260502032355 | 11 | 12 | 0.0 | 1.6 | 0.18 | 6.32 | 6.32 | 99 | 1015.5 |
| 20260502031852 | 12 | 36 | 3.2 | 3.2 | 0.00 | 6.30 | 6.30 | 99 | 1015.1 |
| 20260502031351 | 11 | 8 | 4.8 | 4.8 | 0.13 | 6.30 | 6.30 | 99 | 1015.6 |
| 20260502030848 | 11 | 0 | 11.3 | 12.9 | 0.13 | 6.30 | 6.30 | 99 | 1015.5 |
| 20260502030347 | 11 | 2 | 9.7 | 12.9 | 0.13 | 6.30 | 6.30 | 99 | 1015.5 |
| 20260502025844 | 11 | 358 | 6.4 | 9.7 | 0.18 | 6.27 | 6.27 | 99 | 1015.4 |
| 20260502025342 | 11 | 335 | 6.4 | 6.4 | 0.30 | 6.27 | 6.27 | 99 | 1015.1 |
| 20260502024839 | 11 | 333 | 3.2 | 4.8 | 0.48 | 6.25 | 6.25 | 99 | 1015.0 |
| 20260502024336 | 11 | 63 | 3.2 | 4.8 | 0.48 | 6.22 | 6.22 | 99 | 1014.4 |
| 20260502023834 | 11 | 353 | 3.2 | 4.8 | 0.30 | 6.17 | 6.17 | 99 | 1014.2 |
| 20260502023332 | 11 | 44 | 1.6 | 1.6 | 0.30 | 6.15 | 6.15 | 99 | 1014.7 |
| 20260502022829 | 11 | 16 | 0.0 | 0.0 | 0.30 | 6.12 | 6.12 | 99 | 1014.7 |
| 20260502022325 | 11 | 352 | 6.4 | 6.4 | 0.18 | 6.10 | 6.10 | 99 | 1014.9 |
| 20260502021822 | 11 | 354 | 11.3 | 12.9 | 0.13 | 6.07 | 6.07 | 99 | 1014.9 |
| 20260502021320 | 11 | 358 | 6.4 | 6.4 | 0.30 | 6.07 | 6.07 | 99 | 1014.8 |
| 20260502020818 | 11 | 42 | 3.2 | 3.2 | 0.30 | 6.05 | 6.05 | 99 | 1014.3 |
| 20260502020315 | 11 | 318 | 1.6 | 1.6 | 0.13 | 6.02 | 6.02 | 99 | 1014.0 |
| 20260502015812 | 11 | 358 | 1.6 | 4.8 | 0.18 | 5.99 | 5.99 | 99 | 1013.8 |
| 20260502015308 | 11 | 350 | 6.4 | 9.7 | 0.30 | 5.99 | 5.99 | 99 | 1013.9 |
| 20260502014806 | 12 | 348 | 1.6 | 3.2 | 0.13 | 5.97 | 5.97 | 99 | 1013.6 |
| 20260502014303 | 11 | 68 | 3.2 | 3.2 | 0.30 | 5.97 | 5.97 | 99 | 1013.9 |
| 20260502013759 | 12 | 356 | 6.4 | 9.7 | 0.18 | 5.94 | 5.94 | 99 | 1014.2 |
| 20260502013255 | 12 | 343 | 3.2 | 4.8 | 0.00 | 5.92 | 5.92 | 99 | 1014.0 |
| 20260502012751 | 12 | 319 | 3.2 | 4.8 | 0.13 | 5.92 | 5.92 | 99 | 1013.5 |
| 20260502012249 | 12 | 10 | 4.8 | 9.7 | 0.13 | 5.92 | 5.92 | 99 | 1013.6 |
| 20260502011746 | 12 | 5 | 4.8 | 6.4 | 0.36 | 5.89 | 5.89 | 99 | 1013.3 |
| 20260502011242 | 12 | 18 | 1.6 | 1.6 | 0.48 | 5.89 | 5.89 | 99 | 1013.0 |
| 20260502010740 | 12 | 26 | 0.0 | 1.6 | 0.30 | 5.87 | 5.87 | 99 | 1012.8 |
| 20260502010235 | 12 | 15 | 1.6 | 1.6 | 0.43 | 5.84 | 5.84 | 99 | 1012.7 |
| 20260502005733 | 12 | 46 | 0.0 | 0.0 | 0.61 | 5.82 | 5.82 | 99 | 1012.4 |
| 20260502005231 | 12 | 33 | 0.0 | 1.6 | 0.61 | 5.77 | 5.77 | 99 | 1012.5 |
| 20260502004727 | 12 | 16 | 0.0 | 0.0 | 0.61 | 5.71 | 5.71 | 99 | 1012.9 |
| 20260502004223 | 12 | 346 | 3.2 | 4.8 | 0.79 | 5.66 | 5.66 | 99 | 1013.2 |
| 20260502003721 | 12 | 359 | 4.8 | 6.4 | 0.79 | 5.61 | 5.61 | 99 | 1013.9 |
| 20260502003219 | 12 | 7 | 1.6 | 1.6 | 0.61 | 5.54 | 5.54 | 99 | 1013.5 |
| 20260502002714 | 12 | 14 | 0.0 | 1.6 | 0.61 | 5.49 | 5.49 | 99 | 1012.9 |
| 20260502002212 | 12 | 197 | 0.0 | 3.2 | 0.71 | 5.46 | 5.46 | 99 | 1013.0 |
| 20260502001709 | 12 | 347 | 3.2 | 3.2 | 0.61 | 5.38 | 5.38 | 99 | 1012.9 |
| 20260502001207 | 12 | 22 | 0.0 | 0.0 | 0.61 | 5.33 | 5.33 | 99 | 1012.3 |
| 20260502000704 | 12 | 18 | 0.0 | 1.6 | 0.48 | 5.28 | 5.28 | 99 | 1012.0 |
| 20260502000203 | 12 | 23 | 0.0 | 1.6 | 0.36 | 5.23 | 5.23 | 99 | 1012.5 |
| 20260501235658 | 12 | 341 | 1.6 | 3.2 | 0.30 | 5.21 | 5.21 | 99 | 1012.4 |
| 20260501235154 | 12 | 51 | 4.8 | 6.4 | 0.43 | 5.18 | 5.18 | 99 | 1012.0 |
| 20260501234649 | 12 | 68 | 1.6 | 3.2 | 0.48 | 5.16 | 5.16 | 99 | 1012.3 |
| 20260501234147 | 12 | 71 | 0.0 | 1.6 | 0.18 | 5.11 | 5.11 | 99 | 1012.1 |
| 20260501233645 | 12 | 68 | 1.6 | 3.2 | 0.00 | 5.08 | 5.08 | 99 | 1012.4 |
| 20260501233142 | 12 | 203 | 3.2 | 3.2 | 0.13 | 5.08 | 5.08 | 99 | 1012.1 |
| 20260501232638 | 12 | 71 | 0.0 | 1.6 | 0.30 | 5.08 | 5.08 | 99 | 1011.8 |
| 20260501232136 | 13 | 34 | 1.6 | 1.6 | 0.48 | 5.05 | 5.05 | 99 | 1012.2 |
| 20260501231633 | 12 | 10 | 3.2 | 3.2 | 0.30 | 5.03 | 5.03 | 99 | 1012.2 |
| 20260501231132 | 13 | 66 | 3.2 | 6.4 | 0.30 | 5.00 | 5.00 | 99 | 1011.7 |
| 20260501230630 | 13 | 129 | 4.8 | 4.8 | 0.13 | 4.98 | 4.98 | 99 | 1012.3 |
| 20260501230127 | 13 | 13 | 0.0 | 1.6 | 0.18 | 4.95 | 4.95 | 99 | 1013.2 |
| 20260501225625 | 13 | 350 | 4.8 | 4.8 | 0.18 | 4.95 | 4.95 | 99 | 1013.0 |
| 20260501225121 | 13 | 7 | 4.8 | 6.4 | 0.30 | 4.93 | 4.93 | 99 | 1012.7 |
| 20260501224618 | 13 | 328 | 1.6 | 3.2 | 0.48 | 4.93 | 4.93 | 99 | 1012.7 |
| 20260501224115 | 13 | 355 | 0.0 | 0.0 | 0.61 | 4.88 | 4.88 | 99 | 1012.5 |
| 20260501223612 | 13 | 67 | 1.6 | 3.2 | 0.61 | 4.85 | 4.85 | 99 | 1012.6 |
| 20260501223108 | 13 | 359 | 0.0 | 1.6 | 0.43 | 4.80 | 4.80 | 99 | 1013.1 |
| 20260501222604 | 13 | 344 | 3.2 | 4.8 | 0.30 | 4.75 | 4.75 | 99 | 1013.4 |
| 20260501222101 | 13 | 13 | 0.0 | 1.6 | 0.30 | 4.72 | 4.72 | 99 | 1013.4 |
| 20260501221558 | 13 | 53 | 1.6 | 1.6 | 0.30 | 4.70 | 4.70 | 99 | 1013.2 |
| 20260501221055 | 13 | 353 | 1.6 | 1.6 | 0.30 | 4.67 | 4.67 | 99 | 1012.9 |
| 20260501220553 | 13 | 30 | 3.2 | 3.2 | 0.48 | 4.65 | 4.65 | 99 | 1012.2 |
| 20260501220050 | 13 | 229 | 0.0 | 1.6 | 0.66 | 4.62 | 4.62 | 99 | 1011.6 |
| 20260501215546 | 13 | 44 | 1.6 | 3.2 | 0.61 | 4.60 | 4.60 | 99 | 1011.5 |
| 20260501215041 | 13 | 320 | 0.0 | 1.6 | 0.43 | 4.52 | 4.52 | 99 | 1011.5 |
| 20260501214537 | 13 | 31 | 0.0 | 1.6 | 0.30 | 4.47 | 4.47 | 99 | 1011.9 |
| 20260501214033 | 13 | 17 | 0.0 | 1.6 | 0.30 | 4.45 | 4.45 | 99 | 1012.0 |
| 20260501213530 | 13 | 57 | 1.6 | 1.6 | 0.61 | 4.42 | 4.42 | 99 | 1011.7 |
| 20260501213026 | 13 | 39 | 0.0 | 1.6 | 0.61 | 4.39 | 4.39 | 99 | 1011.7 |
| 20260501212522 | 14 | 22 | 0.0 | 0.0 | 0.30 | 4.32 | 4.32 | 99 | 1011.8 |
| 20260501212020 | 13 | 37 | 0.0 | 0.0 | 0.36 | 4.29 | 4.29 | 99 | 1012.1 |
| 20260501211516 | 13 | 343 | 1.6 | 1.6 | 0.18 | 4.27 | 4.27 | 99 | 1012.4 |
| 20260501211015 | 13 | 18 | 0.0 | 1.6 | 0.00 | 4.24 | 4.24 | 99 | 1012.1 |
| 20260501210510 | 13 | 12 | 0.0 | 1.6 | 0.00 | 4.24 | 4.24 | 99 | 1011.5 |
| 20260501210007 | 13 | 353 | 3.2 | 4.8 | 0.13 | 4.24 | 4.24 | 99 | 1011.0 |
| 20260501205504 | 13 | 28 | 0.0 | 1.6 | 0.13 | 4.24 | 4.24 | 99 | 1011.5 |
| 20260501205002 | 13 | 20 | 0.0 | 1.6 | 0.18 | 4.22 | 4.22 | 99 | 1011.5 |
| 20260501204457 | 13 | 14 | 0.0 | 0.0 | 0.30 | 4.22 | 4.22 | 99 | 1011.4 |
| 20260501203954 | 13 | 90 | 1.6 | 1.6 | 0.30 | 4.19 | 4.19 | 99 | 1011.3 |
| 20260501203450 | 13 | 41 | 1.6 | 3.2 | 0.48 | 4.17 | 4.17 | 99 | 1010.4 |
| 20260501202948 | 13 | 33 | 1.6 | 1.6 | 0.71 | 4.14 | 4.14 | 99 | 1009.8 |
| 20260501202444 | 13 | 31 | 0.0 | 0.0 | 0.89 | 4.11 | 4.11 | 99 | 1009.8 |
| 20260501201941 | 13 | 35 | 0.0 | 0.0 | 0.79 | 4.04 | 4.04 | 99 | 1010.4 |
| 20260501201438 | 13 | 67 | 1.6 | 3.2 | 0.79 | 3.96 | 3.96 | 99 | 1009.9 |
| 20260501200935 | 13 | 35 | 0.0 | 1.6 | 0.71 | 3.91 | 3.91 | 99 | 1010.4 |
| 20260501200432 | 13 | 33 | 1.6 | 1.6 | 0.61 | 3.86 | 3.86 | 99 | 1010.6 |
| 20260501195930 | 13 | 343 | 1.6 | 3.2 | 0.71 | 3.81 | 3.81 | 99 | 1010.5 |
| 20260501195426 | 13 | 41 | 1.6 | 1.6 | 0.61 | 3.76 | 3.76 | 99 | 1010.6 |
| 20260501194921 | 13 | 359 | 3.2 | 4.8 | 0.36 | 3.68 | 3.68 | 99 | 1010.5 |
| 20260501194418 | 13 | 17 | 0.0 | 0.0 | 0.00 | 3.63 | 3.63 | 99 | 1010.4 |
| 20260501193914 | 13 | 19 | 1.6 | 3.2 | 0.00 | 3.63 | 3.63 | 99 | 1010.6 |
| 20260501193412 | 14 | 88 | 0.0 | 1.6 | 0.00 | 3.63 | 3.63 | 99 | 1010.3 |
| 20260501192910 | 14 | 89 | 4.8 | 6.4 | 0.00 | 3.63 | 3.63 | 99 | 1010.2 |
| 20260501192407 | 14 | 101 | 1.6 | 1.6 | 0.13 | 3.63 | 3.63 | 99 | 1010.5 |
| 20260501191904 | 14 | 41 | 1.6 | 1.6 | 0.13 | 3.63 | 3.63 | 99 | 1010.7 |
| 20260501191401 | 14 | 65 | 0.0 | 0.0 | 0.00 | 3.61 | 3.61 | 99 | 1010.2 |
| 20260501190858 | 14 | 197 | 3.2 | 4.8 | 0.00 | 3.61 | 3.61 | 99 | 1010.0 |
| 20260501190354 | 14 | 81 | 6.4 | 9.7 | 0.00 | 3.61 | 3.61 | 99 | 1010.4 |
| 20260501185849 | 14 | 34 | 4.8 | 9.7 | 0.00 | 3.61 | 3.61 | 99 | 1010.4 |
| 20260501185345 | 15 | 80 | 3.2 | 4.8 | 0.00 | 3.61 | 3.61 | 99 | 1010.3 |
| 20260501184841 | 15 | 166 | 9.7 | 12.9 | 0.00 | 3.61 | 3.61 | 99 | 1010.6 |
| 20260501184337 | 15 | 5 | 3.2 | 3.2 | 0.00 | 3.61 | 3.61 | 99 | 1010.6 |
| 20260501183832 | 15 | 66 | 8.0 | 9.7 | 0.00 | 3.61 | 3.61 | 99 | 1010.4 |
| 20260501183330 | 15 | 40 | 0.0 | 1.6 | 0.00 | 3.61 | 3.61 | 99 | 1010.5 |
| 20260501182826 | 15 | 13 | 0.0 | 0.0 | 0.00 | 3.61 | 3.61 | 99 | 1011.2 |
| 20260501182324 | 15 | 355 | 4.8 | 4.8 | 0.00 | 3.61 | 3.61 | 99 | 1011.5 |
| 20260501181820 | 15 | 23 | 3.2 | 3.2 | 0.00 | 3.61 | 3.61 | 99 | 1011.5 |
| 20260501181317 | 15 | 19 | 4.8 | 6.4 | 0.00 | 3.61 | 3.61 | 99 | 1011.2 |
| 20260501180815 | 15 | 46 | 3.2 | 3.2 | 0.18 | 3.61 | 3.61 | 99 | 1011.3 |